Location: Arborea
(39.7744°N, 8.5819°E)
Time: 20:53:01
(UTC+00:00)

H-2A R/B - Pass Details

Date: 24 October 2021
Orbit: 732 x 837 km, 98.2° (Epoch: 06 December)

Event Time Altitude Azimuth Distance (km) Brightness Sun altitude
Rises 17:32:21 0° 167° (SSE) 3,330 5.2 -11.9°
Reaches altitude 10° 17:34:40 10° 168° (SSE) 2,413 4.5 -12.4°
Maximum altitude 17:40:03 83° 256° (WSW) 843 2.2 -13.4°
Drops below altitude 10° 17:45:32 10° 346° (NNW) 2,458 4.7 -14.5°
Sets 17:47:55 0° 347° (NNW) 3,397 5.5 -14.9°
